N5CNB Weather Reports


Display with metric or nautical units.
time (UTC)temp
F
wind
direction
speed
MPH
gust
MPH
rain 1hr
in
rain 24hr
in
rain mn
in
humidity
%
barometer
mb
20260507064523 63 35 6.0 14.0 0.00 0.00 0.00 82 1014.6
20260507063028 63 356 6.0 12.0 0.00 0.00 0.00 82 1014.5
20260507061513 63 21 4.0 15.0 0.00 0.00 0.00 82 1015.0
20260507060016 63 15 5.0 11.0 0.00 0.00 0.00 82 1014.8
20260507054521 63 352 6.0 14.0 0.00 0.00 0.00 82 1014.9
20260507053024 63 4 6.0 17.0 0.00 0.00 0.00 82 1014.8
20260507051525 63 339 3.0 9.0 0.00 0.00 0.00 82 1014.2
20260507050025 63 4 8.0 15.0 0.00 0.00 0.00 81 1014.0
20260507044519 64 324 6.0 13.0 0.00 0.00 0.00 82 1014.5
20260507043023 64 17 5.0 13.0 0.00 0.00 0.00 82 1014.4
20260507041510 64 22 6.0 11.0 0.00 0.00 0.00 82 1014.2
20260507040013 64 351 4.0 13.0 0.00 0.00 0.00 82 1014.4
20260507034516 64 351 3.0 13.0 0.00 0.00 0.00 82 1014.4
20260507033023 64 345 2.0 14.0 0.00 0.00 0.00 82 1013.9
20260507031523 64 13 2.0 11.0 0.00 0.00 0.00 82 1013.8
20260507030008 64 347 2.0 10.0 0.00 0.00 0.00 82 1013.6
20260507024513 64 339 7.0 14.0 0.00 0.00 0.00 81 1013.4
20260507023016 64 349 6.0 13.0 0.00 0.00 0.00 81 1013.0
20260507021522 65 8 4.0 17.0 0.00 0.00 0.00 81 1012.8
20260507020024 65 4 8.0 12.0 0.00 0.00 0.00 81 1012.4
20260507014509 66 27 4.0 16.0 0.00 0.00 0.00 80 1012.0
20260507013015 66 10 5.0 13.0 0.00 0.00 0.00 79 1011.7
20260507011520 67 356 6.0 15.0 0.00 0.00 0.00 79 1011.5
20260507010020 68 1 7.0 13.0 0.00 0.00 0.00 78 1011.4
20260507004524 69 14 6.0 15.0 0.00 0.00 0.00 78 1011.2
20260507003011 69 4 8.0 15.0 0.00 0.00 0.00 78 1010.9
20260507001521 70 16 5.0 14.0 0.00 0.00 0.00 78 1010.7
20260507000026 70 15 6.0 12.0 0.00 0.00 0.00 77 1010.9
20260506234521 71 349 8.0 14.0 0.00 0.00 0.00 77 1010.7
20260506233025 72 41 6.0 14.0 0.00 0.00 0.00 76 1010.5
20260506231514 72 12 6.0 17.0 0.00 0.00 0.00 77 1010.3
20260506230017 72 336 7.0 21.0 0.00 0.00 0.00 77 1010.2
20260506224521 74 18 10.0 18.0 0.00 0.00 0.00 75 1010.1
20260506223021 75 357 5.0 16.0 0.00 0.00 0.00 77 1009.8
20260506221525 81 11 5.0 14.0 0.00 0.00 0.00 78 1009.4
20260506211523 84 75 2.0 5.0 0.00 0.00 0.00 77 1009.2
20260506210028 84 53 2.0 7.0 0.00 0.00 0.00 76 1009.3
20260506201522 81 5 2.0 6.0 0.00 0.00 0.00 81 1009.8
20260506200025 81 9 3.0 9.0 0.00 0.00 0.00 80 1009.8
20260506194526 83 77 1.0 9.0 0.00 0.00 0.00 77 1009.9
20260506193015 81 158 0.0 5.0 0.00 0.00 0.00 81 1009.9
20260506184508 83 210 1.0 2.0 0.00 0.00 0.00 77 1010.3
20260506183012 82 116 1.0 3.0 0.00 0.00 0.00 79 1010.5
20260506181516 81 86 1.0 7.0 0.00 0.00 0.00 79 1010.6
20260506180005 82 155 3.0 4.0 0.00 0.00 0.00 77 1010.7
20260506171515 80 86 1.0 4.0 0.00 0.00 0.00 83 1011.4
20260506170021 80 124 0.0 4.0 0.00 0.00 0.00 83 1011.6
20260506164504 80 135 0.0 2.0 0.00 0.00 0.00 82 1011.7
20260506163012 80 118 0.0 1.0 0.00 0.00 0.00 83 1011.7
20260506153005 78 89 4.0 6.0 0.00 0.00 0.00 84 1010.7
20260506143026 77 161 2.0 6.0 0.00 0.00 0.00 86 1010.3
20260506141506 76 98 1.0 4.0 0.00 0.00 0.00 87 1009.9
20260506140013 76 173 2.0 7.0 0.00 0.00 0.00 87 1009.8
20260506134515 76 128 0.0 4.0 0.00 0.00 0.00 88 1009.8
20260506133018 75 120 2.0 6.0 0.00 0.00 0.00 88 1009.9
20260506131522 75 99 3.0 6.0 0.00 0.00 0.00 89 1009.9
20260506130007 75 113 1.0 4.0 0.00 0.00 0.00 89 1009.9
20260506124512 74 162 1.0 3.0 0.00 0.00 0.00 90 1009.9
20260506123017 74 146 0.0 2.0 0.00 0.00 0.00 90 1009.9
20260506121518 74 153 0.0 1.0 0.00 0.00 0.00 90 1009.7
20260506120023 74 162 0.0 5.0 0.00 0.00 0.00 89 1009.5
20260506114512 74 181 1.0 5.0 0.00 0.00 0.00 89 1009.4
20260506113017 74 216 3.0 7.0 0.00 0.00 0.00 89 1009.2
20260506111517 74 137 3.0 7.0 0.00 0.00 0.00 89 1009.2
20260506110026 74 158 2.0 8.0 0.00 0.00 0.00 89 1009.1
20260506104525 74 231 4.0 10.0 0.00 0.00 0.00 89 1008.8
20260506103014 75 135 3.0 13.0 0.00 0.00 0.00 89 1008.5
20260506101519 75 129 4.0 13.0 0.00 0.00 0.00 89 1008.3
20260506100018 75 93 2.0 10.0 0.00 0.00 0.00 89 1008.3
20260506094506 75 132 4.0 10.0 0.00 0.00 0.00 89 1008.4
20260506093009 74 177 5.0 11.0 0.00 0.00 0.00 89 1008.3
20260506091516 74 270 4.0 10.0 0.00 0.00 0.00 89 1008.4
20260506090023 74 159 3.0 9.0 0.00 0.00 0.00 89 1008.3
20260506084521 74 147 5.0 12.0 0.00 0.00 0.00 89 1008.4
20260506083004 75 210 6.0 11.0 0.00 0.00 0.00 88 1008.5
20260506081512 75 141 5.0 13.0 0.00 0.00 0.00 88 1008.5
20260506073022 75 161 5.0 11.0 0.00 0.00 0.00 88 1009.0
20260506071508 75 216 5.0 12.0 0.00 0.00 0.00 88 1009.2